Flag for Hong Kong Weather past 2 weeks in Hong Kong, Hong Kong

Now
79 °F

Scattered clouds.


Feels Like: 82 °F
Forecast: 72 / 80 °F
Wind: 10 mph from Northeast

Location: National Airport


UV Index: 10 (Very high)

Visibility: N/A


Pressure: 29.92 "Hg

Humidity: 79%

Dew point: 72 °F

Location of Hong KongLocation

Historic Weather in Hong Kong

°F

Hong Kong temperature yesterday

Maximum temperature yesterday: 84 °F (at 3:00 PM)
Minimum temperature yesterday: 73 °F (at 2:30 AM)
Average temperature yesterday: 78 °F

Past Weeks' High & Low Weather Summary

 TemperatureHumidityPressure
High86 °F (Apr 13, 1:00 PM)94% (Apr 6, 3:30 PM)30.07 "Hg (Apr 6, 3:30 PM)
Low64 °F (Apr 5, 6:00 AM)24% (Apr 5, 12:00 PM)29.80 "Hg (Apr 12, 3:30 PM)
Average75 °F75%29.94 "Hg
* Reported Apr 4 7:00 AM — Apr 19 7:30 AM, Hong Kong, Weather by CustomWeather, © 2014

Note: Actual official high and low records may vary slightly from our data, if they occured in-between our weather recording intervals... More about our weather records

Advertising

Historic Weather Conditions — Data for Previous 24 hours

 ConditionsComfort  
Time TempWeatherWind HumidityBarometerVisibility
7:30 AM
Apr 19
77 °FPassing clouds.9 mph79%29.89 "HgN/A
7:00 AM75 °FPassing clouds.7 mph89%29.89 "HgN/A
6:30 AM75 °FPassing clouds.9 mph89%29.86 "Hg6 mi
6:00 AM75 °FPassing clouds.9 mph89%29.86 "HgN/A
5:30 AM75 °FPassing clouds.9 mph83%29.86 "Hg6 mi
5:00 AM73 °FPassing clouds.8 mph89%29.86 "HgN/A
4:30 AM73 °FPassing clouds.7 mph89%29.86 "HgN/A
4:00 AM75 °FPassing clouds.6 mph89%29.86 "Hg5 mi
3:30 AM75 °FPassing clouds.5 mph83%29.86 "HgN/A
3:00 AM75 °FPassing clouds.3 mph83%29.86 "HgN/A
2:30 AM75 °FPassing clouds.3 mph78%29.86 "HgN/A
2:00 AM75 °FPassing clouds.3 mph78%29.89 "HgN/A
1:30 AM77 °FPassing clouds.3 mph74%29.89 "HgN/A
1:00 AM77 °FPassing clouds.5 mph74%29.89 "HgN/A
12:30 AM77 °FPassing clouds.5 mph79%29.89 "HgN/A
12:00 AM77 °FPassing clouds.5 mph79%29.89 "HgN/A
11:30 PM
Apr 18
77 °FPassing clouds.6 mph79%29.89 "HgN/A
11:00 PM77 °FPassing clouds.3 mph74%29.89 "HgN/A
10:30 PM77 °FPassing clouds.5 mph74%29.89 "HgN/A
10:00 PM77 °FPassing clouds.3 mph79%29.89 "HgN/A
9:30 PM77 °FPassing clouds.7 mph79%29.89 "HgN/A
9:00 PM77 °FPassing clouds.7 mph69%29.86 "HgN/A
8:30 PM77 °FPassing clouds.3 mph69%29.86 "HgN/A
8:00 PM77 °FPassing clouds.6 mph79%29.86 "HgN/A
7:30 PM77 °FPassing clouds.8 mph74%29.86 "HgN/A
7:00 PM77 °FPassing clouds.10 mph79%29.86 "HgN/A
6:30 PM79 °FPassing clouds.10 mph70%29.86 "HgN/A
6:00 PM79 °FPassing clouds.12 mph70%29.86 "HgN/A
5:30 PM79 °FPassing clouds.12 mph70%29.83 "HgN/A
5:00 PM81 °FPassing clouds.6 mph62%29.83 "HgN/A
4:30 PM82 °FPassing clouds.5 mph58%29.86 "HgN/A
4:00 PM82 °FPassing clouds.7 mph58%29.86 "HgN/A
3:30 PM82 °FPassing clouds.7 mph62%29.86 "HgN/A
3:00 PM84 °FPassing clouds.7 mph55%29.86 "HgN/A
2:30 PM82 °FPassing clouds.7 mph66%29.86 "HgN/A
2:00 PM81 °FPassing clouds.3 mph70%29.89 "HgN/A
1:30 PM82 °FPassing clouds.6 mph66%29.89 "HgN/A
1:00 PM82 °FPassing clouds.6 mph66%29.92 "HgN/A
12:30 PM81 °FPassing clouds.8 mph70%29.92 "HgN/A
12:00 PM81 °FPassing clouds.6 mph70%29.92 "HgN/A
11:30 AM81 °FPassing clouds.5 mph70%29.95 "HgN/A
11:00 AM79 °FPassing clouds.6 mph74%29.95 "HgN/A
10:30 AM79 °FPassing clouds.6 mph74%29.95 "HgN/A
10:00 AM79 °FPassing clouds.3 mph74%29.95 "Hg6 mi
9:30 AM79 °FPassing clouds.6 mph74%29.95 "Hg4 mi
9:00 AM79 °FPassing clouds.7 mph74%29.92 "Hg4 mi
8:30 AM79 °FPassing clouds.8 mph74%29.92 "HgN/A
8:00 AM77 °FPassing clouds.7 mph79%29.92 "HgN/A
Weather by CustomWeather, © 2014

See weather overview